Zurück zum Katalog

LEMUR 2 JOHNNYTRUONG

AktivWissenschaftPO
NORAD 59146·PAYLOAD·🇺🇸 United States

Gestartet Mar 4, 2024 von Vandenberg Space Force Base

Loading…

Nächste Überflüge (nächste 24 Stunden)

TLE

AktuellSource: Space-Track

Epoche: Sep 13, 2026, 21:37 UTC

1 59146U 24043BA  26256.90133598  .00046548  00000-0  43016-3 0  9991
2 59146  97.5446  54.6064 0003394 207.5762 152.5318 15.67433087141909

Verfolge LEMUR 2 JOHNNYTRUONG in Echtzeit mit AllMySat

Download on the App Store